YO7ZRO-13 Weather Reports


time (UTC)temp
F
wind
direction
speed
knots
gust
knots
rain 1hr
in
rain 24hr
in
rain mn
in
humidity
%
barometer
mb
20260506062417 69 0.0 0.0 0.00 0.00 0.00 44 1007.8
20260506062318 69 0.0 0.0 0.00 0.00 0.00 44 1007.8
20260506062217 69 0.0 0.0 0.00 0.00 0.00 44 1007.8
20260506062117 69 0.0 0.0 0.00 0.00 0.00 44 1007.9
20260506062017 69 0.0 0.0 0.00 0.00 0.00 44 1007.8
20260506061917 69 0.0 0.0 0.00 0.00 0.00 44 1007.9
20260506061817 69 0.0 0.0 0.00 0.00 0.00 44 1007.8
20260506061717 69 0.0 0.0 0.00 0.00 0.00 44 1007.8
20260506061617 69 0.0 0.0 0.00 0.00 0.00 44 1007.8
20260506061517 69 0.0 0.0 0.00 0.00 0.00 44 1007.8
20260506061417 69 0.0 0.0 0.00 0.00 0.00 44 1007.8
20260506061317 69 0.0 0.0 0.00 0.00 0.00 44 1007.9
20260506061217 69 0.0 0.0 0.00 0.00 0.00 44 1007.8
20260506061118 69 0.0 0.0 0.00 0.00 0.00 44 1007.8
20260506061017 69 0.0 0.0 0.00 0.00 0.00 44 1007.8
20260506060917 69 0.0 0.0 0.00 0.00 0.00 44 1007.9
20260506060817 69 0.0 0.0 0.00 0.00 0.00 44 1007.8
20260506060717 69 0.0 0.0 0.00 0.00 0.00 44 1007.9
20260506060618 69 0.0 0.0 0.00 0.00 0.00 43 1007.9
20260506060517 69 0.0 0.0 0.00 0.00 0.00 43 1007.9
20260506060417 69 0.0 0.0 0.00 0.00 0.00 43 1008.0
20260506060317 69 0.0 0.0 0.00 0.00 0.00 43 1007.9
20260506060217 68 0.0 0.0 0.00 0.00 0.00 43 1007.9
20260506060117 68 0.0 0.0 0.00 0.00 0.00 43 1007.9
20260506051317 68 0.0 0.0 0.00 0.00 0.00 41 1007.8
20260506051217 68 0.0 0.0 0.00 0.00 0.00 41 1007.9
20260506051117 68 0.0 0.0 0.00 0.00 0.00 41 1007.9
20260506051017 68 0.0 0.0 0.00 0.00 0.00 41 1007.9
20260506050917 67 0.0 0.0 0.00 0.00 0.00 42 1007.9
20260506050817 68 0.0 0.0 0.00 0.00 0.00 41 1007.9
20260506050717 68 0.0 0.0 0.00 0.00 0.00 41 1007.8
20260506050618 68 0.0 0.0 0.00 0.00 0.00 41 1008.0
20260506050517 68 0.0 0.0 0.00 0.00 0.00 41 1007.9
20260506050417 68 0.0 0.0 0.00 0.00 0.00 41 1007.9
20260506050317 68 0.0 0.0 0.00 0.00 0.00 41 1007.9
20260506050217 68 0.0 0.0 0.00 0.00 0.00 41 1007.9
20260506050117 68 0.0 0.0 0.00 0.00 0.00 41 1007.8
20260506045117 68 0.0 0.0 0.00 0.00 0.00 42 1007.7
20260506045017 68 0.0 0.0 0.00 0.00 0.00 42 1007.8
20260506044917 68 0.0 0.0 0.00 0.00 0.00 42 1007.8
20260506044817 68 0.0 0.0 0.00 0.00 0.00 42 1007.7
20260506044717 68 0.0 0.0 0.00 0.00 0.00 42 1007.8
20260506044617 68 0.0 0.0 0.00 0.00 0.00 42 1007.7
20260506044517 68 0.0 0.0 0.00 0.00 0.00 43 1007.8
20260506044417 68 0.0 0.0 0.00 0.00 0.00 43 1007.7
20260506044317 68 0.0 0.0 0.00 0.00 0.00 43 1007.7
20260506044217 68 0.0 0.0 0.00 0.00 0.00 43 1007.7
20260506044117 68 0.0 0.0 0.00 0.00 0.00 43 1007.7
20260506044017 68 0.0 0.0 0.00 0.00 0.00 44 1007.6
20260506043917 68 0.0 0.0 0.00 0.00 0.00 44 1007.7
20260506043817 68 0.0 0.0 0.00 0.00 0.00 44 1007.6
20260506043717 68 0.0 0.0 0.00 0.00 0.00 44 1007.6
20260506043617 68 0.0 0.0 0.00 0.00 0.00 44 1007.6
20260506043517 68 0.0 0.0 0.00 0.00 0.00 44 1007.6
20260506043417 68 0.0 0.0 0.00 0.00 0.00 45 1007.5
20260506043317 68 0.0 0.0 0.00 0.00 0.00 45 1007.6
20260506043217 68 0.0 0.0 0.00 0.00 0.00 45 1007.5
20260506043117 68 0.0 0.0 0.00 0.00 0.00 45 1007.6
20260506043017 68 0.0 0.0 0.00 0.00 0.00 45 1007.5
20260506042917 68 0.0 0.0 0.00 0.00 0.00 45 1007.5
20260506042817 68 0.0 0.0 0.00 0.00 0.00 44 1007.5
20260506042718 68 0.0 0.0 0.00 0.00 0.00 45 1007.5
20260506042617 68 0.0 0.0 0.00 0.00 0.00 47 1007.5
20260506042517 68 0.0 0.0 0.00 0.00 0.00 46 1007.5
20260506042417 68 0.0 0.0 0.00 0.00 0.00 46 1007.5
20260506042317 68 0.0 0.0 0.00 0.00 0.00 46 1007.5
20260506042217 68 0.0 0.0 0.00 0.00 0.00 46 1007.5
20260506042117 69 0.0 0.0 0.00 0.00 0.00 46 1007.4
20260506042018 69 0.0 0.0 0.00 0.00 0.00 46 1007.5
20260506041917 69 0.0 0.0 0.00 0.00 0.00 48 1007.4
20260506041817 70 0.0 0.0 0.00 0.00 0.00 51 1007.4
20260506041717 70 0.0 0.0 0.00 0.00 0.00 51 1007.5
20260506041617 70 0.0 0.0 0.00 0.00 0.00 51 1007.5
20260506041518 69 0.0 0.0 0.00 0.00 0.00 50 1007.5
20260506041417 69 0.0 0.0 0.00 0.00 0.00 51 1007.4
20260506041317 69 0.0 0.0 0.00 0.00 0.00 50 1007.4
20260506041217 69 0.0 0.0 0.00 0.00 0.00 50 1007.5
20260506041117 69 0.0 0.0 0.00 0.00 0.00 51 1007.4
20260506041018 69 0.0 0.0 0.00 0.00 0.00 51 1007.4
20260506040917 69 0.0 0.0 0.00 0.00 0.00 51 1007.4
20260506040817 69 0.0 0.0 0.00 0.00 0.00 51 1007.3
20260506040717 69 0.0 0.0 0.00 0.00 0.00 51 1007.4
20260506040617 69 0.0 0.0 0.00 0.00 0.00 51 1007.4
20260506040517 69 0.0 0.0 0.00 0.00 0.00 51 1007.4
20260506040417 69 0.0 0.0 0.00 0.00 0.00 51 1007.3
20260506040317 69 0.0 0.0 0.00 0.00 0.00 51 1007.5
20260506040217 69 0.0 0.0 0.00 0.00 0.00 51 1007.4
20260506040117 69 0.0 0.0 0.00 0.00 0.00 51 1007.3
20260506040017 69 0.0 0.0 0.00 0.00 0.00 51 1007.2
20260506035917 69 0.0 0.0 0.00 0.00 0.00 51 1007.3
20260506035817 69 0.0 0.0 0.00 0.00 0.00 51 1007.2
20260506035717 69 0.0 0.0 0.00 0.00 0.00 52 1007.3
20260506035617 69 0.0 0.0 0.00 0.00 0.00 51 1007.3
20260506035517 69 0.0 0.0 0.00 0.00 0.00 51 1007.2
20260506035418 69 0.0 0.0 0.00 0.00 0.00 52 1007.3
20260506035317 69 0.0 0.0 0.00 0.00 0.00 51 1007.3
20260506035217 70 0.0 0.0 0.00 0.00 0.00 51 1007.3
20260506035117 70 0.0 0.0 0.00 0.00 0.00 52 1007.4
20260506035017 69 0.0 0.0 0.00 0.00 0.00 52 1007.3
20260506034917 70 0.0 0.0 0.00 0.00 0.00 51 1007.3
20260506034817 70 0.0 0.0 0.00 0.00 0.00 52 1007.3
20260506034717 70 0.0 0.0 0.00 0.00 0.00 52 1007.3
20260506034617 70 0.0 0.0 0.00 0.00 0.00 51 1007.2
20260506034517 70 0.0 0.0 0.00 0.00 0.00 52 1007.2
20260506034417 70 0.0 0.0 0.00 0.00 0.00 52 1007.2
20260506034317 70 0.0 0.0 0.00 0.00 0.00 51 1007.2
20260506034217 70 0.0 0.0 0.00 0.00 0.00 52 1007.2
20260506034117 70 0.0 0.0 0.00 0.00 0.00 51 1007.2
20260506034017 70 0.0 0.0 0.00 0.00 0.00 52 1007.2
20260506033917 70 0.0 0.0 0.00 0.00 0.00 52 1007.2
20260506033817 70 0.0 0.0 0.00 0.00 0.00 52 1007.2
20260506033717 70 0.0 0.0 0.00 0.00 0.00 52 1007.2
20260506033617 70 0.0 0.0 0.00 0.00 0.00 52 1007.2
20260506033517 70 0.0 0.0 0.00 0.00 0.00 52 1007.3
20260506033417 70 0.0 0.0 0.00 0.00 0.00 53 1007.2
20260506033317 70 0.0 0.0 0.00 0.00 0.00 52 1007.3
20260506033217 70 0.0 0.0 0.00 0.00 0.00 52 1007.2
20260506033117 70 0.0 0.0 0.00 0.00 0.00 52 1007.2
20260506033017 69 0.0 0.0 0.00 0.00 0.00 51 1007.2
20260506032917 69 0.0 0.0 0.00 0.00 0.00 52 1007.2
20260506032817 69 0.0 0.0 0.00 0.00 0.00 52 1007.2
20260506032717 69 0.0 0.0 0.00 0.00 0.00 52 1007.2
20260506032617 69 0.0 0.0 0.00 0.00 0.00 52 1007.2
20260506032518 69 0.0 0.0 0.00 0.00 0.00 51 1007.2
20260506032417 69 0.0 0.0 0.00 0.00 0.00 52 1007.2
20260506032318 69 0.0 0.0 0.00 0.00 0.00 52 1007.2
20260506032217 69 0.0 0.0 0.00 0.00 0.00 51 1007.2
20260506032117 69 0.0 0.0 0.00 0.00 0.00 52 1007.2
20260506032017 69 0.0 0.0 0.00 0.00 0.00 52 1007.1
20260506031918 69 0.0 0.0 0.00 0.00 0.00 52 1007.2
20260506031817 69 0.0 0.0 0.00 0.00 0.00 52 1007.1
20260506031717 69 0.0 0.0 0.00 0.00 0.00 52 1007.2
20260506031617 69 0.0 0.0 0.00 0.00 0.00 52 1007.1
20260506031517 69 0.0 0.0 0.00 0.00 0.00 52 1007.1
20260506031417 69 0.0 0.0 0.00 0.00 0.00 52 1007.2
20260506031317 69 0.0 0.0 0.00 0.00 0.00 52 1007.1
20260506031217 69 0.0 0.0 0.00 0.00 0.00 52 1007.1
20260506031117 69 0.0 0.0 0.00 0.00 0.00 52 1007.1
20260506031017 69 0.0 0.0 0.00 0.00 0.00 52 1007.1
20260506030917 69 0.0 0.0 0.00 0.00 0.00 51 1007.2
20260506030817 69 0.0 0.0 0.00 0.00 0.00 52 1007.1
20260506030717 69 0.0 0.0 0.00 0.00 0.00 52 1007.1
20260506030617 69 0.0 0.0 0.00 0.00 0.00 52 1007.1
20260506030517 69 0.0 0.0 0.00 0.00 0.00 52 1007.1
20260506030417 69 0.0 0.0 0.00 0.00 0.00 51 1007.1
20260506030317 69 0.0 0.0 0.00 0.00 0.00 51 1007.1
20260506030217 69 0.0 0.0 0.00 0.00 0.00 51 1007.1
20260506030117 69 0.0 0.0 0.00 0.00 0.00 51 1007.1
20260506030017 69 0.0 0.0 0.00 0.00 0.00 51 1007.0
20260506025917 69 0.0 0.0 0.00 0.00 0.00 51 1007.0
20260506025817 69 0.0 0.0 0.00 0.00 0.00 51 1007.1
20260506025717 69 0.0 0.0 0.00 0.00 0.00 52 1007.0
20260506025617 69 0.0 0.0 0.00 0.00 0.00 52 1007.0
20260506025517 69 0.0 0.0 0.00 0.00 0.00 52 1007.1
20260506025417 69 0.0 0.0 0.00 0.00 0.00 51 1007.0
20260506025317 69 0.0 0.0 0.00 0.00 0.00 52 1006.9
20260506025217 69 0.0 0.0 0.00 0.00 0.00 52 1006.9
20260506025117 69 0.0 0.0 0.00 0.00 0.00 51 1006.9
20260506025017 69 0.0 0.0 0.00 0.00 0.00 52 1006.9
20260506024917 69 0.0 0.0 0.00 0.00 0.00 52 1007.0
20260506024817 69 0.0 0.0 0.00 0.00 0.00 52 1006.9
20260506024717 69 0.0 0.0 0.00 0.00 0.00 52 1006.9
20260506024617 69 0.0 0.0 0.00 0.00 0.00 52 1006.9
20260506024517 69 0.0 0.0 0.00 0.00 0.00 52 1006.9
20260506024417 69 0.0 0.0 0.00 0.00 0.00 52 1006.9
20260506024317 69 0.0 0.0 0.00 0.00 0.00 52 1006.9
20260506024217 69 0.0 0.0 0.00 0.00 0.00 51 1007.0
20260506024117 69 0.0 0.0 0.00 0.00 0.00 52 1007.0
20260506024017 69 0.0 0.0 0.00 0.00 0.00 51 1006.9
20260506023917 69 0.0 0.0 0.00 0.00 0.00 51 1006.9
20260506023817 69 0.0 0.0 0.00 0.00 0.00 51 1006.9
20260506023717 69 0.0 0.0 0.00 0.00 0.00 51 1006.9
20260506023617 69 0.0 0.0 0.00 0.00 0.00 51 1006.9
20260506023517 69 0.0 0.0 0.00 0.00 0.00 51 1006.8
20260506023417 69 0.0 0.0 0.00 0.00 0.00 51 1006.8
20260506023317 69 0.0 0.0 0.00 0.00 0.00 51 1006.8
20260506023217 69 0.0 0.0 0.00 0.00 0.00 51 1006.8
20260506023117 69 0.0 0.0 0.00 0.00 0.00 52 1006.8
20260506023017 69 0.0 0.0 0.00 0.00 0.00 52 1006.8
20260506022917 69 0.0 0.0 0.00 0.00 0.00 52 1006.8
20260506022817 69 0.0 0.0 0.00 0.00 0.00 52 1006.8
20260506022717 69 0.0 0.0 0.00 0.00 0.00 52 1006.9
20260506022617 69 0.0 0.0 0.00 0.00 0.00 52 1006.8
20260506022517 69 0.0 0.0 0.00 0.00 0.00 51 1006.8
20260506022417 69 0.0 0.0 0.00 0.00 0.00 51 1006.8
20260506022317 69 0.0 0.0 0.00 0.00 0.00 51 1006.8
20260506022218 69 0.0 0.0 0.00 0.00 0.00 51 1006.8
20260506022117 69 0.0 0.0 0.00 0.00 0.00 51 1006.8
20260506022017 69 0.0 0.0 0.00 0.00 0.00 51 1006.8
20260506021917 69 0.0 0.0 0.00 0.00 0.00 51 1006.8
20260506021817 69 0.0 0.0 0.00 0.00 0.00 51 1006.7
20260506021717 69 0.0 0.0 0.00 0.00 0.00 51 1006.7
20260506021617 69 0.0 0.0 0.00 0.00 0.00 51 1006.7
20260506021517 69 0.0 0.0 0.00 0.00 0.00 51 1006.6
20260506021417 69 0.0 0.0 0.00 0.00 0.00 51 1006.6
20260506021318 69 0.0 0.0 0.00 0.00 0.00 51 1006.6
20260506021217 69 0.0 0.0 0.00 0.00 0.00 51 1006.6
20260506021117 69 0.0 0.0 0.00 0.00 0.00 51 1006.6
20260506021017 69 0.0 0.0 0.00 0.00 0.00 52 1006.6
20260506020917 69 0.0 0.0 0.00 0.00 0.00 52 1006.6
20260506020817 69 0.0 0.0 0.00 0.00 0.00 52 1006.7
20260506020717 69 0.0 0.0 0.00 0.00 0.00 52 1006.7
20260506020617 69 0.0 0.0 0.00 0.00 0.00 52 1006.7
20260506020517 69 0.0 0.0 0.00 0.00 0.00 52 1006.6
20260506020417 69 0.0 0.0 0.00 0.00 0.00 52 1006.7
20260506020317 69 0.0 0.0 0.00 0.00 0.00 52 1006.7
20260506020217 69 0.0 0.0 0.00 0.00 0.00 51 1006.7
20260506020117 69 0.0 0.0 0.00 0.00 0.00 52 1006.7
20260506020017 69 0.0 0.0 0.00 0.00 0.00 52 1006.7
20260506015917 69 0.0 0.0 0.00 0.00 0.00 52 1006.7
20260506015817 69 0.0 0.0 0.00 0.00 0.00 51 1006.7
20260506015717 70 0.0 0.0 0.00 0.00 0.00 52 1006.7
20260506015617 69 0.0 0.0 0.00 0.00 0.00 52 1006.8
20260506015517 70 0.0 0.0 0.00 0.00 0.00 52 1006.7
20260506015417 70 0.0 0.0 0.00 0.00 0.00 52 1006.7
20260506015317 70 0.0 0.0 0.00 0.00 0.00 52 1006.7
20260506015217 70 0.0 0.0 0.00 0.00 0.00 52 1006.7
20260506015117 70 0.0 0.0 0.00 0.00 0.00 52 1006.7
20260506015017 70 0.0 0.0 0.00 0.00 0.00 51 1006.7
20260506014917 70 0.0 0.0 0.00 0.00 0.00 52 1006.7
20260506014817 70 0.0 0.0 0.00 0.00 0.00 52 1006.7
20260506014717 70 0.0 0.0 0.00 0.00 0.00 52 1006.6
20260506014617 70 0.0 0.0 0.00 0.00 0.00 52 1006.7
20260506014517 70 0.0 0.0 0.00 0.00 0.00 52 1006.7
20260506014417 70 0.0 0.0 0.00 0.00 0.00 52 1006.7
20260506014317 70 0.0 0.0 0.00 0.00 0.00 52 1006.8
20260506014217 70 0.0 0.0 0.00 0.00 0.00 52 1006.8
20260506014117 70 0.0 0.0 0.00 0.00 0.00 52 1006.8
20260506014017 70 0.0 0.0 0.00 0.00 0.00 51 1006.8
20260506013917 70 0.0 0.0 0.00 0.00 0.00 51 1006.8
20260506013817 70 0.0 0.0 0.00 0.00 0.00 51 1006.8
20260506013717 70 0.0 0.0 0.00 0.00 0.00 51 1006.7
20260506013617 70 0.0 0.0 0.00 0.00 0.00 51 1006.8
20260506013517 70 0.0 0.0 0.00 0.00 0.00 51 1006.8
20260506013417 70 0.0 0.0 0.00 0.00 0.00 52 1006.7
20260506013317 70 0.0 0.0 0.00 0.00 0.00 52 1006.7
20260506013217 70 0.0 0.0 0.00 0.00 0.00 52 1006.8
20260506013117 70 0.0 0.0 0.00 0.00 0.00 52 1006.7
20260506013017 70 0.0 0.0 0.00 0.00 0.00 52 1006.8
20260506012917 70 0.0 0.0 0.00 0.00 0.00 52 1006.7
20260506012817 70 0.0 0.0 0.00 0.00 0.00 52 1006.7
20260506012717 70 0.0 0.0 0.00 0.00 0.00 52 1006.7
20260506012617 70 0.0 0.0 0.00 0.00 0.00 52 1006.7
20260506012517 70 0.0 0.0 0.00 0.00 0.00 52 1006.7
20260506012417 70 0.0 0.0 0.00 0.00 0.00 52 1006.7
20260506012317 70 0.0 0.0 0.00 0.00 0.00 52 1006.6
20260506012217 70 0.0 0.0 0.00 0.00 0.00 52 1006.7
20260506012117 70 0.0 0.0 0.00 0.00 0.00 52 1006.7
20260506012017 70 0.0 0.0 0.00 0.00 0.00 52 1006.8
20260506011917 70 0.0 0.0 0.00 0.00 0.00 52 1006.7
20260506011817 70 0.0 0.0 0.00 0.00 0.00 52 1006.7
20260506011717 70 0.0 0.0 0.00 0.00 0.00 52 1006.7
20260506011617 70 0.0 0.0 0.00 0.00 0.00 52 1006.7
20260506011517 70 0.0 0.0 0.00 0.00 0.00 52 1006.7
20260506011417 70 0.0 0.0 0.00 0.00 0.00 52 1006.7
20260506011317 70 0.0 0.0 0.00 0.00 0.00 52 1006.7
20260506011217 70 0.0 0.0 0.00 0.00 0.00 52 1006.6
20260506011118 70 0.0 0.0 0.00 0.00 0.00 52 1006.8
20260506011017 70 0.0 0.0 0.00 0.00 0.00 52 1006.7
20260506010917 70 0.0 0.0 0.00 0.00 0.00 52 1006.6
20260506010817 70 0.0 0.0 0.00 0.00 0.00 52 1006.6
20260506010717 70 0.0 0.0 0.00 0.00 0.00 52 1006.7
20260506010617 70 0.0 0.0 0.00 0.00 0.00 52 1006.7
20260506010517 70 0.0 0.0 0.00 0.00 0.00 52 1006.7
20260506010417 70 0.0 0.0 0.00 0.00 0.00 52 1006.7
20260506010317 70 0.0 0.0 0.00 0.00 0.00 52 1006.7
20260506010217 70 0.0 0.0 0.00 0.00 0.00 52 1006.7
20260506010117 70 0.0 0.0 0.00 0.00 0.00 52 1006.7
20260506010017 70 0.0 0.0 0.00 0.00 0.00 52 1006.6
20260506005917 70 0.0 0.0 0.00 0.00 0.00 52 1006.7
20260506005817 70 0.0 0.0 0.00 0.00 0.00 52 1006.6
20260506005717 70 0.0 0.0 0.00 0.00 0.00 52 1006.7
20260506005617 70 0.0 0.0 0.00 0.00 0.00 52 1006.6
20260506005517 70 0.0 0.0 0.00 0.00 0.00 52 1006.7
20260506005417 70 0.0 0.0 0.00 0.00 0.00 52 1006.6
20260506005317 70 0.0 0.0 0.00 0.00 0.00 52 1006.6
20260506005217 70 0.0 0.0 0.00 0.00 0.00 52 1006.6
20260506005117 70 0.0 0.0 0.00 0.00 0.00 52 1006.6
20260506005017 70 0.0 0.0 0.00 0.00 0.00 52 1006.7
20260506004917 70 0.0 0.0 0.00 0.00 0.00 51 1006.6
20260506004817 70 0.0 0.0 0.00 0.00 0.00 51 1006.5
20260506004717 70 0.0 0.0 0.00 0.00 0.00 52 1006.5
20260506004617 70 0.0 0.0 0.00 0.00 0.00 52 1006.6
20260506004517 70 0.0 0.0 0.00 0.00 0.00 52 1006.5
20260506004417 70 0.0 0.0 0.00 0.00 0.00 51 1006.6
20260506004317 70 0.0 0.0 0.00 0.00 0.00 52 1006.5
20260506004217 70 0.0 0.0 0.00 0.00 0.00 51 1006.5
20260506004117 70 0.0 0.0 0.00 0.00 0.00 51 1006.5
20260506004017 70 0.0 0.0 0.00 0.00 0.00 52 1006.5
20260506003917 70 0.0 0.0 0.00 0.00 0.00 51 1006.5
20260506003817 70 0.0 0.0 0.00 0.00 0.00 52 1006.5
20260506003717 70 0.0 0.0 0.00 0.00 0.00 52 1006.5
20260506003617 70 0.0 0.0 0.00 0.00 0.00 52 1006.5
20260506003517 70 0.0 0.0 0.00 0.00 0.00 52 1006.5
20260506003417 70 0.0 0.0 0.00 0.00 0.00 52 1006.5
20260506003317 70 0.0 0.0 0.00 0.00 0.00 52 1006.6
20260506003217 70 0.0 0.0 0.00 0.00 0.00 52 1006.5
20260506003117 70 0.0 0.0 0.00 0.00 0.00 52 1006.6
20260506003017 70 0.0 0.0 0.00 0.00 0.00 52 1006.5
20260506002917 70 0.0 0.0 0.00 0.00 0.00 52 1006.6
20260506002817 70 0.0 0.0 0.00 0.00 0.00 52 1006.6
20260506002717 70 0.0 0.0 0.00 0.00 0.00 51 1006.6
20260506002618 70 0.0 0.0 0.00 0.00 0.00 51 1006.7
20260506002517 70 0.0 0.0 0.00 0.00 0.00 51 1006.6
20260506002417 70 0.0 0.0 0.00 0.00 0.00 51 1006.6
20260506002317 70 0.0 0.0 0.00 0.00 0.00 51 1006.7
20260506002217 70 0.0 0.0 0.00 0.00 0.00 51 1006.6
20260506002117 70 0.0 0.0 0.00 0.00 0.00 51 1006.7
20260506002017 70 0.0 0.0 0.00 0.00 0.00 51 1006.6
20260506001917 70 0.0 0.0 0.00 0.00 0.00 51 1006.6
20260506001817 70 0.0 0.0 0.00 0.00 0.00 51 1006.7
20260506001717 70 0.0 0.0 0.00 0.00 0.00 51 1006.6
20260506001617 70 0.0 0.0 0.00 0.00 0.00 51 1006.6
20260506001517 70 0.0 0.0 0.00 0.00 0.00 51 1006.7
20260506001417 70 0.0 0.0 0.00 0.00 0.00 51 1006.6
20260506001317 70 0.0 0.0 0.00 0.00 0.00 51 1006.6
20260506001217 70 0.0 0.0 0.00 0.00 0.00 51 1006.6
20260506001117 70 0.0 0.0 0.00 0.00 0.00 51 1006.6
20260506001018 70 0.0 0.0 0.00 0.00 0.00 51 1006.6
20260506000917 70 0.0 0.0 0.00 0.00 0.00 51 1006.6
20260506000817 70 0.0 0.0 0.00 0.00 0.00 51 1006.6
20260506000718 70 0.0 0.0 0.00 0.00 0.00 51 1006.6
20260506000618 70 0.0 0.0 0.00 0.00 0.00 51 1006.6
20260506000517 70 0.0 0.0 0.00 0.00 0.00 51 1006.6
20260506000417 70 0.0 0.0 0.00 0.00 0.00 51 1006.5
20260506000317 70 0.0 0.0 0.00 0.00 0.00 51 1006.6
20260506000219 70 0.0 0.0 0.00 0.00 0.00 51 1006.5
20260506000117 70 0.0 0.0 0.00 0.00 0.00 51 1006.5
20260506000017 70 0.0 0.0 0.00 0.00 0.00 51 1006.4
20260505235917 70 0.0 0.0 0.00 0.00 0.00 51 1006.5
20260505235817 70 0.0 0.0 0.00 0.00 0.00 51 1006.5
20260505235717 70 0.0 0.0 0.00 0.00 0.00 51 1006.5
20260505235617 70 0.0 0.0 0.00 0.00 0.00 51 1006.5
20260505235517 70 0.0 0.0 0.00 0.00 0.00 51 1006.4
20260505235418 70 0.0 0.0 0.00 0.00 0.00 51 1006.5
20260505235317 70 0.0 0.0 0.00 0.00 0.00 51 1006.5
20260505235217 70 0.0 0.0 0.00 0.00 0.00 51 1006.5
20260505235117 70 0.0 0.0 0.00 0.00 0.00 51 1006.4
20260505235017 70 0.0 0.0 0.00 0.00 0.00 51 1006.5
20260505234917 70 0.0 0.0 0.00 0.00 0.00 51 1006.5
20260505234817 70 0.0 0.0 0.00 0.00 0.00 51 1006.5
20260505234717 70 0.0 0.0 0.00 0.00 0.00 51 1006.5
20260505234617 70 0.0 0.0 0.00 0.00 0.00 51 1006.5
20260505234517 70 0.0 0.0 0.00 0.00 0.00 51 1006.4
20260505234417 70 0.0 0.0 0.00 0.00 0.00 51 1006.5
20260505234317 70 0.0 0.0 0.00 0.00 0.00 51 1006.5
20260505234217 70 0.0 0.0 0.00 0.00 0.00 51 1006.5
20260505234117 70 0.0 0.0 0.00 0.00 0.00 51 1006.5
20260505234017 70 0.0 0.0 0.00 0.00 0.00 51 1006.5
20260505233917 70 0.0 0.0 0.00 0.00 0.00 51 1006.5
20260505233817 70 0.0 0.0 0.00 0.00 0.00 51 1006.5
20260505233718 70 0.0 0.0 0.00 0.00 0.00 51 1006.4
20260505233617 70 0.0 0.0 0.00 0.00 0.00 51 1006.5
20260505233517 70 0.0 0.0 0.00 0.00 0.00 51 1006.5
20260505233417 70 0.0 0.0 0.00 0.00 0.00 51 1006.5
20260505233317 70 0.0 0.0 0.00 0.00 0.00 51 1006.5
20260505233217 70 0.0 0.0 0.00 0.00 0.00 51 1006.5
20260505233117 70 0.0 0.0 0.00 0.00 0.00 51 1006.5
20260505233017 70 0.0 0.0 0.00 0.00 0.00 51 1006.5
20260505232917 70 0.0 0.0 0.00 0.00 0.00 50 1006.5
20260505232817 70 0.0 0.0 0.00 0.00 0.00 50 1006.6
20260505232717 70 0.0 0.0 0.00 0.00 0.00 51 1006.5
20260505232617 70 0.0 0.0 0.00 0.00 0.00 50 1006.4
20260505232517 70 0.0 0.0 0.00 0.00 0.00 51 1006.5
20260505232418 70 0.0 0.0 0.00 0.00 0.00 50 1006.5
20260505232317 70 0.0 0.0 0.00 0.00 0.00 51 1006.4
20260505232218 70 0.0 0.0 0.00 0.00 0.00 50 1006.4
20260505232117 70 0.0 0.0 0.00 0.00 0.00 51 1006.4
20260505232017 70 0.0 0.0 0.00 0.00 0.00 50 1006.4
20260505231917 70 0.0 0.0 0.00 0.00 0.00 51 1006.4
20260505231817 70 0.0 0.0 0.00 0.00 0.00 51 1006.4
20260505231718 70 0.0 0.0 0.00 0.00 0.00 51 1006.4
20260505231617 70 0.0 0.0 0.00 0.00 0.00 51 1006.4
20260505231517 70 0.0 0.0 0.00 0.00 0.00 51 1006.4
20260505231417 70 0.0 0.0 0.00 0.00 0.00 51 1006.4
20260505231318 70 0.0 0.0 0.00 0.00 0.00 51 1006.4
20260505231217 70 0.0 0.0 0.00 0.00 0.00 51 1006.4
20260505231117 70 0.0 0.0 0.00 0.00 0.00 50 1006.4
20260505231017 70 0.0 0.0 0.00 0.00 0.00 51 1006.4
20260505230917 70 0.0 0.0 0.00 0.00 0.00 51 1006.5
20260505230817 70 0.0 0.0 0.00 0.00 0.00 51 1006.4
20260505230717 70 0.0 0.0 0.00 0.00 0.00 50 1006.5
20260505230617 70 0.0 0.0 0.00 0.00 0.00 50 1006.4
20260505230517 70 0.0 0.0 0.00 0.00 0.00 50 1006.6
20260505230417 70 0.0 0.0 0.00 0.00 0.00 50 1006.5
20260505230317 70 0.0 0.0 0.00 0.00 0.00 50 1006.6
20260505230217 70 0.0 0.0 0.00 0.00 0.00 50 1006.5
20260505230117 70 0.0 0.0 0.00 0.00 0.00 50 1006.5
20260505230017 70 0.0 0.0 0.00 0.00 0.00 50 1006.5
20260505225917 70 0.0 0.0 0.00 0.00 0.00 50 1006.5
20260505225817 70 0.0 0.0 0.00 0.00 0.00 51 1006.5
20260505225717 70 0.0 0.0 0.00 0.00 0.00 51 1006.5
20260505225617 70 0.0 0.0 0.00 0.00 0.00 50 1006.4
20260505225517 70 0.0 0.0 0.00 0.00 0.00 50 1006.4
20260505225417 70 0.0 0.0 0.00 0.00 0.00 51 1006.4
20260505225317 70 0.0 0.0 0.00 0.00 0.00 51 1006.5
20260505225217 70 0.0 0.0 0.00 0.00 0.00 51 1006.5
20260505225117 70 0.0 0.0 0.00 0.00 0.00 51 1006.5
20260505225017 70 0.0 0.0 0.00 0.00 0.00 50 1006.4
20260505224917 70 0.0 0.0 0.00 0.00 0.00 50 1006.5
20260505224817 70 0.0 0.0 0.00 0.00 0.00 50 1006.5
20260505224717 70 0.0 0.0 0.00 0.00 0.00 50 1006.5
20260505224617 70 0.0 0.0 0.00 0.00 0.00 50 1006.5
20260505224517 70 0.0 0.0 0.00 0.00 0.00 50 1006.5
20260505224417 70 0.0 0.0 0.00 0.00 0.00 50 1006.5
20260505224317 70 0.0 0.0 0.00 0.00 0.00 50 1006.5
20260505224217 70 0.0 0.0 0.00 0.00 0.00 50 1006.5
20260505224117 70 0.0 0.0 0.00 0.00 0.00 50 1006.5
20260505224017 70 0.0 0.0 0.00 0.00 0.00 50 1006.5
20260505223917 70 0.0 0.0 0.00 0.00 0.00 50 1006.6
20260505223817 70 0.0 0.0 0.00 0.00 0.00 50 1006.5
20260505223717 70 0.0 0.0 0.00 0.00 0.00 49 1006.6
20260505223617 70 0.0 0.0 0.00 0.00 0.00 50 1006.6
20260505223517 70 0.0 0.0 0.00 0.00 0.00 50 1006.5
20260505223417 70 0.0 0.0 0.00 0.00 0.00 50 1006.5
20260505223317 70 0.0 0.0 0.00 0.00 0.00 50 1006.6
20260505223217 70 0.0 0.0 0.00 0.00 0.00 49 1006.5
20260505223117 70 0.0 0.0 0.00 0.00 0.00 49 1006.6
20260505223017 70 0.0 0.0 0.00 0.00 0.00 50 1006.6
20260505222917 70 0.0 0.0 0.00 0.00 0.00 50 1006.6
20260505222817 70 0.0 0.0 0.00 0.00 0.00 50 1006.5
20260505222717 70 0.0 0.0 0.00 0.00 0.00 49 1006.6
20260505222617 70 0.0 0.0 0.00 0.00 0.00 49 1006.5
20260505222517 70 0.0 0.0 0.00 0.00 0.00 50 1006.5
20260505222417 70 0.0 0.0 0.00 0.00 0.00 50 1006.6
20260505222317 70 0.0 0.0 0.00 0.00 0.00 49 1006.6
20260505222217 70 0.0 0.0 0.00 0.00 0.00 49 1006.5
20260505222117 70 0.0 0.0 0.00 0.00 0.00 49 1006.6
20260505222017 70 0.0 0.0 0.00 0.00 0.00 49 1006.6
20260505221917 70 0.0 0.0 0.00 0.00 0.00 49 1006.5
20260505221817 70 0.0 0.0 0.00 0.00 0.00 49 1006.6
20260505221717 70 0.0 0.0 0.00 0.00 0.00 50 1006.6
20260505221617 70 0.0 0.0 0.00 0.00 0.00 50 1006.6
20260505221517 70 0.0 0.0 0.00 0.00 0.00 50 1006.6
20260505221417 70 0.0 0.0 0.00 0.00 0.00 49 1006.6
20260505221317 70 0.0 0.0 0.00 0.00 0.00 50 1006.6
20260505221217 70 0.0 0.0 0.00 0.00 0.00 49 1006.6
20260505221117 70 0.0 0.0 0.00 0.00 0.00 49 1006.7
20260505221017 70 0.0 0.0 0.00 0.00 0.00 49 1006.6
20260505220917 70 0.0 0.0 0.00 0.00 0.00 49 1006.6
20260505220817 70 0.0 0.0 0.00 0.00 0.00 49 1006.6
20260505220717 70 0.0 0.0 0.00 0.00 0.00 49 1006.6
20260505220617 70 0.0 0.0 0.00 0.00 0.00 49 1006.6
20260505220517 70 0.0 0.0 0.00 0.00 0.00 49 1006.6
20260505220417 70 0.0 0.0 0.00 0.00 0.00 49 1006.6
20260505220317 70 0.0 0.0 0.00 0.00 0.00 49 1006.5
20260505220217 70 0.0 0.0 0.00 0.00 0.00 49 1006.6
20260505220117 70 0.0 0.0 0.00 0.00 0.00 49 1006.6
20260505220017 70 0.0 0.0 0.00 0.00 0.00 49 1006.6
20260505215917 70 0.0 0.0 0.00 0.00 0.00 50 1006.6
20260505215817 70 0.0 0.0 0.00 0.00 0.00 50 1006.6
20260505215717 70 0.0 0.0 0.00 0.00 0.00 49 1006.6
20260505215617 70 0.0 0.0 0.00 0.00 0.00 50 1006.6
20260505215517 70 0.0 0.0 0.00 0.00 0.00 49 1006.6
20260505215417 70 0.0 0.0 0.00 0.00 0.00 50 1006.6
20260505215317 70 0.0 0.0 0.00 0.00 0.00 49 1006.6
20260505215217 70 0.0 0.0 0.00 0.00 0.00 50 1006.6
20260505215117 70 0.0 0.0 0.00 0.00 0.00 49 1006.6
20260505215017 70 0.0 0.0 0.00 0.00 0.00 50 1006.6
20260505214918 70 0.0 0.0 0.00 0.00 0.00 50 1006.6
20260505214817 70 0.0 0.0 0.00 0.00 0.00 50 1006.6
20260505214717 70 0.0 0.0 0.00 0.00 0.00 50 1006.5
20260505214617 70 0.0 0.0 0.00 0.00 0.00 50 1006.6
20260505214517 70 0.0 0.0 0.00 0.00 0.00 50 1006.5
20260505214417 70 0.0 0.0 0.00 0.00 0.00 50 1006.6
20260505214317 70 0.0 0.0 0.00 0.00 0.00 50 1006.6
20260505214217 70 0.0 0.0 0.00 0.00 0.00 50 1006.5
20260505214117 70 0.0 0.0 0.00 0.00 0.00 50 1006.5
20260505214017 70 0.0 0.0 0.00 0.00 0.00 50 1006.5
20260505213917 70 0.0 0.0 0.00 0.00 0.00 50 1006.6
20260505213817 70 0.0 0.0 0.00 0.00 0.00 50 1006.5
20260505213717 70 0.0 0.0 0.00 0.00 0.00 50 1006.5
20260505213617 70 0.0 0.0 0.00 0.00 0.00 50 1006.5
20260505213517 70 0.0 0.0 0.00 0.00 0.00 50 1006.5
20260505213417 70 0.0 0.0 0.00 0.00 0.00 49 1006.5
20260505213317 70 0.0 0.0 0.00 0.00 0.00 49 1006.5
20260505213217 70 0.0 0.0 0.00 0.00 0.00 49 1006.6
20260505213117 70 0.0 0.0 0.00 0.00 0.00 49 1006.6
20260505213017 70 0.0 0.0 0.00 0.00 0.00 49 1006.5
20260505212917 70 0.0 0.0 0.00 0.00 0.00 49 1006.5
20260505212817 70 0.0 0.0 0.00 0.00 0.00 49 1006.6
20260505212717 70 0.0 0.0 0.00 0.00 0.00 49 1006.6
20260505212617 70 0.0 0.0 0.00 0.00 0.00 50 1006.6
20260505212517 70 0.0 0.0 0.00 0.00 0.00 49 1006.6
20260505212417 70 0.0 0.0 0.00 0.00 0.00 49 1006.6
20260505212317 70 0.0 0.0 0.00 0.00 0.00 49 1006.5
20260505212217 70 0.0 0.0 0.00 0.00 0.00 49 1006.6
20260505212117 70 0.0 0.0 0.00 0.00 0.00 49 1006.5
20260505212017 70 0.0 0.0 0.00 0.00 0.00 49 1006.6
20260505211917 70 0.0 0.0 0.00 0.00 0.00 49 1006.6
20260505211817 70 0.0 0.0 0.00 0.00 0.00 49 1006.6
20260505211717 70 0.0 0.0 0.00 0.00 0.00 49 1006.6
20260505211617 70 0.0 0.0 0.00 0.00 0.00 49 1006.6
20260505211517 70 0.0 0.0 0.00 0.00 0.00 48 1006.5
20260505211417 70 0.0 0.0 0.00 0.00 0.00 48 1006.6
20260505211317 70 0.0 0.0 0.00 0.00 0.00 49 1006.6
20260505211217 70 0.0 0.0 0.00 0.00 0.00 48 1006.6
20260505211117 70 0.0 0.0 0.00 0.00 0.00 49 1006.7
20260505211017 70 0.0 0.0 0.00 0.00 0.00 49 1006.6
20260505210917 70 0.0 0.0 0.00 0.00 0.00 49 1006.6
20260505210817 70 0.0 0.0 0.00 0.00 0.00 49 1006.6
20260505210717 70 0.0 0.0 0.00 0.00 0.00 48 1006.7
20260505210617 70 0.0 0.0 0.00 0.00 0.00 49 1006.6
20260505210517 70 0.0 0.0 0.00 0.00 0.00 48 1006.6
20260505210417 70 0.0 0.0 0.00 0.00 0.00 48 1006.6
20260505210317 70 0.0 0.0 0.00 0.00 0.00 48 1006.6
20260505210217 70 0.0 0.0 0.00 0.00 0.00 48 1006.6
20260505210117 70 0.0 0.0 0.00 0.00 0.00 48 1006.6
20260505210017 70 0.0 0.0 0.00 0.00 0.00 48 1006.6
20260505205917 70 0.0 0.0 0.00 0.00 0.00 48 1006.6
20260505205817 70 0.0 0.0 0.00 0.00 0.00 48 1006.6
20260505205717 70 0.0 0.0 0.00 0.00 0.00 48 1006.6
20260505205617 70 0.0 0.0 0.00 0.00 0.00 48 1006.5
20260505205517 70 0.0 0.0 0.00 0.00 0.00 48 1006.6
20260505205417 70 0.0 0.0 0.00 0.00 0.00 48 1006.6
20260505205317 70 0.0 0.0 0.00 0.00 0.00 49 1006.6
20260505205217 70 0.0 0.0 0.00 0.00 0.00 48 1006.6
20260505205117 70 0.0 0.0 0.00 0.00 0.00 49 1006.6
20260505205017 70 0.0 0.0 0.00 0.00 0.00 49 1006.6
20260505204917 70 0.0 0.0 0.00 0.00 0.00 48 1006.6
20260505204817 70 0.0 0.0 0.00 0.00 0.00 48 1006.6
20260505204717 70 0.0 0.0 0.00 0.00 0.00 48 1006.6
20260505204617 70 0.0 0.0 0.00 0.00 0.00 48 1006.6
20260505204517 70 0.0 0.0 0.00 0.00 0.00 48 1006.6
20260505204417 70 0.0 0.0 0.00 0.00 0.00 48 1006.6
20260505204317 70 0.0 0.0 0.00 0.00 0.00 48 1006.6
20260505204217 70 0.0 0.0 0.00 0.00 0.00 48 1006.6
20260505204117 70 0.0 0.0 0.00 0.00 0.00 48 1006.7
20260505204017 70 0.0 0.0 0.00 0.00 0.00 48 1006.6
20260505203917 70 0.0 0.0 0.00 0.00 0.00 48 1006.7
20260505203817 70 0.0 0.0 0.00 0.00 0.00 48 1006.6
20260505203717 70 0.0 0.0 0.00 0.00 0.00 48 1006.7
20260505203617 70 0.0 0.0 0.00 0.00 0.00 48 1006.7
20260505203517 70 0.0 0.0 0.00 0.00 0.00 48 1006.6
20260505203417 70 0.0 0.0 0.00 0.00 0.00 46 1006.7
20260505203317 70 0.0 0.0 0.00 0.00 0.00 48 1006.6
20260505203217 70 0.0 0.0 0.00 0.00 0.00 48 1006.7
20260505203117 70 0.0 0.0 0.00 0.00 0.00 48 1006.7
20260505203017 70 0.0 0.0 0.00 0.00 0.00 48 1006.7
20260505202917 70 0.0 0.0 0.00 0.00 0.00 47 1006.6
20260505202817 70 0.0 0.0 0.00 0.00 0.00 47 1006.6
20260505202717 70 0.0 0.0 0.00 0.00 0.00 48 1006.6
20260505202617 70 0.0 0.0 0.00 0.00 0.00 48 1006.6
20260505202517 70 0.0 0.0 0.00 0.00 0.00 48 1006.6
20260505202417 70 0.0 0.0 0.00 0.00 0.00 48 1006.6
20260505202317 70 0.0 0.0 0.00 0.00 0.00 48 1006.6
20260505202217 70 0.0 0.0 0.00 0.00 0.00 48 1006.6
20260505202117 70 0.0 0.0 0.00 0.00 0.00 47 1006.7
20260505202017 70 0.0 0.0 0.00 0.00 0.00 47 1006.7
20260505201917 70 0.0 0.0 0.00 0.00 0.00 47 1006.6
20260505201817 70 0.0 0.0 0.00 0.00 0.00 47 1006.6
20260505201717 70 0.0 0.0 0.00 0.00 0.00 47 1006.6
20260505201617 70 0.0 0.0 0.00 0.00 0.00 47 1006.6
20260505201517 70 0.0 0.0 0.00 0.00 0.00 47 1006.6
20260505201417 70 0.0 0.0 0.00 0.00 0.00 47 1006.6
20260505201317 70 0.0 0.0 0.00 0.00 0.00 48 1006.6
20260505201217 70 0.0 0.0 0.00 0.00 0.00 47 1006.5
20260505201117 70 0.0 0.0 0.00 0.00 0.00 47 1006.6
20260505201017 70 0.0 0.0 0.00 0.00 0.00 47 1006.4
20260505200917 70 0.0 0.0 0.00 0.00 0.00 47 1006.5
20260505200817 70 0.0 0.0 0.00 0.00 0.00 47 1006.5
20260505200717 70 0.0 0.0 0.00 0.00 0.00 47 1006.5
20260505200617 70 0.0 0.0 0.00 0.00 0.00 47 1006.4
20260505200517 70 0.0 0.0 0.00 0.00 0.00 47 1006.5
20260505200417 70 0.0 0.0 0.00 0.00 0.00 47 1006.5
20260505200317 70 0.0 0.0 0.00 0.00 0.00 47 1006.5
20260505200217 70 0.0 0.0 0.00 0.00 0.00 47 1006.4
20260505200117 70 0.0 0.0 0.00 0.00 0.00 47 1006.5
20260505200017 70 0.0 0.0 0.00 0.00 0.00 47 1006.4
20260505195917 70 0.0 0.0 0.00 0.00 0.00 47 1006.4
20260505195817 70 0.0 0.0 0.00 0.00 0.00 48 1006.4
20260505195717 70 0.0 0.0 0.00 0.00 0.00 47 1006.3
20260505195617 70 0.0 0.0 0.00 0.00 0.00 47 1006.3
20260505195517 70 0.0 0.0 0.00 0.00 0.00 47 1006.3
20260505195417 70 0.0 0.0 0.00 0.00 0.00 47 1006.3
20260505195317 70 0.0 0.0 0.00 0.00 0.00 47 1006.4
20260505195217 70 0.0 0.0 0.00 0.00 0.00 47 1006.3
20260505195117 70 0.0 0.0 0.00 0.00 0.00 47 1006.3
20260505195017 70 0.0 0.0 0.00 0.00 0.00 47 1006.3
20260505194917 70 0.0 0.0 0.00 0.00 0.00 47 1006.3
20260505194817 70 0.0 0.0 0.00 0.00 0.00 47 1006.3
20260505194717 70 0.0 0.0 0.00 0.00 0.00 47 1006.3
20260505194617 70 0.0 0.0 0.00 0.00 0.00 47 1006.3
20260505194517 70 0.0 0.0 0.00 0.00 0.00 47 1006.4
20260505194417 70 0.0 0.0 0.00 0.00 0.00 47 1006.3
20260505194317 70 0.0 0.0 0.00 0.00 0.00 47 1006.4
20260505194217 70 0.0 0.0 0.00 0.00 0.00 47 1006.3
20260505194117 70 0.0 0.0 0.00 0.00 0.00 47 1006.4
20260505194017 70 0.0 0.0 0.00 0.00 0.00 47 1006.4
20260505193917 70 0.0 0.0 0.00 0.00 0.00 47 1006.4
20260505193817 70 0.0 0.0 0.00 0.00 0.00 47 1006.4
20260505193717 70 0.0 0.0 0.00 0.00 0.00 47 1006.3
20260505193617 70 0.0 0.0 0.00 0.00 0.00 47 1006.4
20260505193517 71 0.0 0.0 0.00 0.00 0.00 47 1006.4
20260505193417 70 0.0 0.0 0.00 0.00 0.00 47 1006.4
20260505193317 70 0.0 0.0 0.00 0.00 0.00 47 1006.4
20260505193217 71 0.0 0.0 0.00 0.00 0.00 47 1006.3
20260505193117 71 0.0 0.0 0.00 0.00 0.00 47 1006.4
20260505193017 71 0.0 0.0 0.00 0.00 0.00 47 1006.4
20260505192917 71 0.0 0.0 0.00 0.00 0.00 47 1006.3
20260505192817 71 0.0 0.0 0.00 0.00 0.00 47 1006.4
20260505192717 71 0.0 0.0 0.00 0.00 0.00 47 1006.3
20260505192617 71 0.0 0.0 0.00 0.00 0.00 47 1006.4
20260505192517 71 0.0 0.0 0.00 0.00 0.00 47 1006.3
20260505192417 71 0.0 0.0 0.00 0.00 0.00 47 1006.3
20260505192317 71 0.0 0.0 0.00 0.00 0.00 47 1006.3
20260505192217 71 0.0 0.0 0.00 0.00 0.00 47 1006.3
20260505192117 71 0.0 0.0 0.00 0.00 0.00 46 1006.3
20260505192017 71 0.0 0.0 0.00 0.00 0.00 47 1006.4
20260505191946 71 0.0 0.0 0.00 0.00 0.00 47 1006.3
20260505191917 71 0.0 0.0 0.00 0.00 0.00 47 1006.3
20260505191817 71 0.0 0.0 0.00 0.00 0.00 47 1006.3
20260505191717 71 0.0 0.0 0.00 0.00 0.00 46 1006.3
20260505191617 71 0.0 0.0 0.00 0.00 0.00 47 1006.3
20260505191517 71 0.0 0.0 0.00 0.00 0.00 46 1006.3
20260505191417 71 0.0 0.0 0.00 0.00 0.00 47 1006.3
20260505191317 71 0.0 0.0 0.00 0.00 0.00 47 1006.3
20260505191217 71 0.0 0.0 0.00 0.00 0.00 47 1006.3
20260505191117 71 0.0 0.0 0.00 0.00 0.00 47 1006.3
20260505191017 71 0.0 0.0 0.00 0.00 0.00 46 1006.3